Weather History for Dallas/Ft Worth, TX

Change the Weather History Date:

Tuesday, August 26, 2014

  Actual Average Record
Temperature  
Mean Temperature 88 °F 84 °F  
Max Temperature 97 °F 95 °F 106 °F (1999)
Min Temperature 78 °F 74 °F 60 °F (1926)
Degree Days  
Heating Degree Days 0 0  
Month to date heating degree days 0 0  
Since 1 June heating degree days 0 0  
Since 1 July heating degree days 0 0  
Cooling Degree Days 23 19  
Month to date cooling degree days 564 539  
Year to date cooling degree days 2156 2083  
Since 1 June cooling degree days 1680 1661  
Growing Degree Days 38 (Base 50)    
Moisture  
Dew Point 69 °F    
Average Humidity 59    
Maximum Humidity 79    
Minimum Humidity 38    
Precipitation  
Precipitation T in 0.07 in 3.31 in (1947)
Month to date precipitation 3.94 1.50  
Year to date precipitation 15.51 23.70  
Sea Level Pressure  
Sea Level Pressure 29.96 in    
Wind  
Wind Speed 7 mph (ESE)    
Max Wind Speed 16 mph    
Max Gust Speed 19 mph    
Visibility 10 miles    
Events      
T = Trace of Precipitation, MM = Missing Value Source: NWS Daily Summary

Daily Weather History Graph

Daily Weather History Graph

Search for Another Location

Airport:

Trip Planner

Search our weather history database for the weather conditions in past years. The results will help you decide how hot, cold, wet, or windy it might be!

Date:

Astronomy

Aug. 26, 2014 Rise Set
Actual Time 6:58 AM CDT 8:00 PM CDT
Civil Twilight 6:33 AM CDT 8:25 PM CDT
Nautical Twilight 6:03 AM CDT 8:55 PM CDT
Astronomical Twilight 5:31 AM CDT 9:26 PM CDT
Moon 7:54 AM CDT (8/26) 8:29 PM CDT (8/26)
Length of Visible Light 13h 52m
Length of Day
13h 01m
New Moon, 1% of the Moon is Illuminated
Aug 26
New Moon
Sep 2
First Quarter
Sep 8
Full
Sep 15
Last Quarter
Sep 24
New

Hourly Weather History & Observations

Time (CDT) Temp. Heat Index Dew Point Humidity Pressure Visibility Wind Dir Wind Speed Gust Speed Precip Events Conditions
12:53 AM 84.0 °F 87.0 °F 68.0 °F 58% 29.93 in 10.0 mi SE 5.8 mph - N/A   Scattered Clouds
1:53 AM 82.9 °F 85.8 °F 68.0 °F 60% 29.92 in 10.0 mi ESE 4.6 mph - N/A   Scattered Clouds
2:53 AM 82.0 °F 84.9 °F 68.0 °F 62% 29.92 in 10.0 mi ESE 5.8 mph - N/A   Mostly Cloudy
3:53 AM 82.4 °F 85.4 °F 68.0 °F 62% 29.96 in 10.0 mi East 3.5 mph - N/A   Mostly Cloudy
4:53 AM 80.1 °F 82.9 °F 69.1 °F 69% 29.95 in 10.0 mi SE 4.6 mph - N/A   Mostly Cloudy
5:53 AM 79.0 °F - 69.1 °F 72% 29.96 in 10.0 mi SE 5.8 mph - N/A   Mostly Cloudy
6:53 AM 78.8 °F - 69.8 °F 74% 30.00 in 10.0 mi Calm Calm - N/A   Mostly Cloudy
7:53 AM 79.0 °F - 71.1 °F 77% 29.99 in 10.0 mi ESE 5.8 mph - N/A   Scattered Clouds
8:53 AM 82.9 °F 87.5 °F 71.1 °F 67% 30.00 in 10.0 mi SSE 3.5 mph - N/A   Scattered Clouds
9:53 AM 84.9 °F 90.1 °F 71.1 °F 63% 30.01 in 10.0 mi ESE 3.5 mph - N/A   Scattered Clouds
10:53 AM 89.1 °F 95.0 °F 71.1 °F 55% 30.02 in 10.0 mi Calm Calm - N/A   Scattered Clouds
11:53 AM 91.9 °F 99.5 °F 72.0 °F 52% 30.02 in 10.0 mi Variable 6.9 mph - N/A   Scattered Clouds
12:53 PM 93.9 °F 100.8 °F 71.1 °F 47% 30.00 in 10.0 mi Variable 3.5 mph - N/A   Scattered Clouds
1:53 PM 93.9 °F 100.3 °F 70.0 °F 46% 29.99 in 10.0 mi NE 11.5 mph - N/A   Mostly Cloudy
2:53 PM 95.0 °F 100.7 °F 69.1 °F 43% 29.96 in 10.0 mi ENE 10.4 mph - N/A   Mostly Cloudy
3:53 PM 96.8 °F 103.1 °F 69.8 °F 41% 29.97 in 10.0 mi ESE 8.1 mph 16.1 mph N/A   Mostly Cloudy
4:53 PM 93.9 °F 98.6 °F 68.0 °F 43% 29.92 in 10.0 mi East 11.5 mph - N/A   Mostly Cloudy
5:53 PM 96.1 °F 99.9 °F 66.9 °F 38% 29.91 in 10.0 mi East 11.5 mph - 0.00 in   Scattered Clouds
6:53 PM 93.9 °F 96.1 °F 64.9 °F 38% 29.91 in 10.0 mi East 10.4 mph - N/A   Partly Cloudy
7:53 PM 91.9 °F 94.5 °F 66.0 °F 42% 29.93 in 10.0 mi ESE 10.4 mph - N/A   Scattered Clouds
8:53 PM 90.0 °F 92.8 °F 66.9 °F 46% 29.94 in 10.0 mi ESE 10.4 mph - N/A   Partly Cloudy
9:53 PM 89.1 °F 92.1 °F 66.9 °F 48% 29.96 in 10.0 mi East 9.2 mph - N/A   Partly Cloudy
10:53 PM 88.0 °F 90.7 °F 66.9 °F 49% 29.98 in 10.0 mi ESE 12.7 mph - N/A   Partly Cloudy
11:53 PM 86.0 °F 88.8 °F 66.9 °F 53% 29.99 in 10.0 mi ESE 10.4 mph - N/A   Partly Cloudy